Location: Baumgarten
(49.0970°N, 12.7493°E)
Time: 02:48:39
(UTC+00:00)

Lacrosse 5 rocket - Pass Details

Date: 05 July 2020
Orbit: 464 x 632 km, 57.0° (Epoch: 04 August)

Event Time Altitude Azimuth Distance (km) Brightness Sun altitude
Rises 21:15:04 0° 289° (WNW) 2,781 5.7 -13.5°
Reaches altitude 10° 21:17:39 10° 302° (WNW) 1,851 5.0 -13.7°
Maximum altitude 21:21:13 26° 1° (N) 1,079 3.5 -14.0°
Drops below altitude 10° 21:24:37 10° 59° (ENE) 1,760 4.0 -14.2°
Sets 21:27:01 0° 73° (ENE) 2,616 4.7 -14.4°
